Time,TemperatureF,DewpointF,PressureIn,WindDirection,WindDirectionDegrees,WindSpeedMPH,WindSpeedGustMPH,Humidity,HourlyPrecipIn,Conditions,Clouds,dailyrainin,SoftwareType,DateUTC
2013-01-23 08:02:00,11.2,-1.8,30.18,SW,219,0.0,0.0,55,0.00,,,0.00,Wunderground v.1.15,2013-01-23 13:02:00,
2013-01-23 08:07:00,11.4,-2.0,30.18,NW,304,0.0,3.0,54,0.00,,,0.00,Wunderground v.1.15,2013-01-23 13:07:00,
2013-01-23 08:13:00,11.6,-1.9,30.18,WNW,286,0.0,5.0,54,0.00,,,0.00,Wunderground v.1.15,2013-01-23 13:13:00,
2013-01-23 08:18:00,11.7,-1.8,30.19,West,275,1.0,5.0,54,0.00,,,0.00,Wunderground v.1.15,2013-01-23 13:18:00,
2013-01-23 08:23:00,11.9,-2.0,30.19,West,265,0.0,4.0,53,0.00,,,0.00,Wunderground v.1.15,2013-01-23 13:23:00,
2013-01-23 08:28:00,12.3,-1.6,30.19,NNW,329,0.0,5.0,53,0.00,,,0.00,Wunderground v.1.15,2013-01-23 13:28:00,
2013-01-23 08:33:00,12.6,-1.7,30.19,WNW,285,0.0,4.0,52,0.00,,,0.00,Wunderground v.1.15,2013-01-23 13:33:00,
2013-01-23 08:38:00,12.8,-1.5,30.19,NW,310,0.0,12.0,52,0.00,,,0.00,Wunderground v.1.15,2013-01-23 13:38:00,
2013-01-23 08:43:00,12.9,-1.9,30.19,NW,324,0.0,7.0,51,0.00,,,0.00,Wunderground v.1.15,2013-01-23 13:43:00,
2013-01-23 08:48:00,13.3,-1.5,30.19,West,277,7.0,8.0,51,0.00,,,0.00,Wunderground v.1.15,2013-01-23 13:48:00,
2013-01-23 08:53:00,13.5,-1.7,30.19,NW,321,0.0,9.0,50,0.00,,,0.00,Wunderground v.1.15,2013-01-23 13:53:00,
2013-01-23 08:58:00,13.8,-1.4,30.19,WNW,288,2.0,9.0,50,0.00,,,0.00,Wunderground v.1.15,2013-01-23 13:58:00,
2013-01-23 09:03:00,14.1,-1.2,30.19,North,360,3.0,8.0,50,0.00,,,0.00,Wunderground v.1.15,2013-01-23 14:03:00,
2013-01-23 09:08:00,14.4,-1.3,30.19,WNW,299,3.0,8.0,49,0.00,,,0.00,Wunderground v.1.15,2013-01-23 14:08:00,
2013-01-23 09:13:00,14.6,-1.6,30.19,NW,317,5.0,11.0,48,0.00,,,0.00,Wunderground v.1.15,2013-01-23 14:13:00,
2013-01-23 09:18:00,14.6,-2.0,30.19,West,276,3.0,11.0,47,0.00,,,0.00,Wunderground v.1.15,2013-01-23 14:18:00,
2013-01-23 09:23:00,14.8,-1.8,30.19,NNW,331,7.0,8.0,47,0.00,,,0.00,Wunderground v.1.15,2013-01-23 14:23:00,
2013-01-23 09:28:00,15.1,-1.5,30.19,West,269,2.0,11.0,47,0.00,,,0.00,Wunderground v.1.15,2013-01-23 14:28:00,
2013-01-23 09:33:00,15.4,-1.3,30.19,WNW,284,4.0,8.0,47,0.00,,,0.00,Wunderground v.1.15,2013-01-23 14:33:00,
2013-01-23 09:38:00,15.4,-1.7,30.19,WNW,302,1.0,9.0,46,0.00,,,0.00,Wunderground v.1.15,2013-01-23 14:38:00,
2013-01-23 09:43:00,15.6,-1.5,30.19,West,263,1.0,7.0,46,0.00,,,0.00,Wunderground v.1.15,2013-01-23 14:43:00,
2013-01-23 09:48:00,15.9,-1.7,30.19,NW,320,1.0,10.0,45,0.00,,,0.00,Wunderground v.1.15,2013-01-23 14:48:00,
2013-01-23 09:53:00,16.1,-1.5,30.19,North,350,0.0,4.0,45,0.00,,,0.00,Wunderground v.1.15,2013-01-23 14:53:00,
2013-01-23 09:58:00,16.2,-1.5,30.19,West,277,5.0,8.0,45,0.00,,,0.00,Wunderground v.1.15,2013-01-23 14:58:00,
2013-01-23 10:03:00,16.5,-1.2,30.20,WNW,294,6.0,10.0,45,0.00,,,0.00,Wunderground v.1.15,2013-01-23 15:03:00,
2013-01-23 10:08:00,16.4,-1.7,30.20,WNW,285,3.0,10.0,44,0.00,,,0.00,Wunderground v.1.15,2013-01-23 15:08:00,
2013-01-23 10:13:00,16.4,-1.7,30.20,WNW,296,2.0,9.0,44,0.00,,,0.00,Wunderground v.1.15,2013-01-23 15:13:00,
2013-01-23 10:18:00,16.5,-1.7,30.20,NNW,331,0.0,9.0,44,0.00,,,0.00,Wunderground v.1.15,2013-01-23 15:18:00,
2013-01-23 10:24:00,16.7,-1.5,30.20,WSW,237,5.0,9.0,44,0.00,,,0.00,Wunderground v.1.15,2013-01-23 15:24:00,
2013-01-23 10:29:00,17.2,-1.0,30.20,WNW,288,2.0,9.0,44,0.00,,,0.00,Wunderground v.1.15,2013-01-23 15:29:00,
2013-01-23 10:34:00,17.7,-0.6,30.19,WNW,303,0.0,4.0,44,0.00,,,0.00,Wunderground v.1.15,2013-01-23 15:34:00,
2013-01-23 10:39:00,18.1,-0.7,30.19,NNW,335,6.0,8.0,43,0.00,,,0.00,Wunderground v.1.15,2013-01-23 15:39:00,
2013-01-23 10:44:00,18.1,-1.2,30.19,NW,313,0.0,12.0,42,0.00,,,0.00,Wunderground v.1.15,2013-01-23 15:44:00,
2013-01-23 10:49:00,18.4,-0.9,30.19,WNW,298,0.0,12.0,42,0.00,,,0.00,Wunderground v.1.15,2013-01-23 15:49:00,
2013-01-23 10:54:00,18.4,-1.9,30.19,WNW,302,2.0,11.0,40,0.00,,,0.00,Wunderground v.1.15,2013-01-23 15:54:00,
2013-01-23 10:59:00,18.0,-2.8,30.19,WNW,289,0.0,11.0,39,0.00,,,0.00,Wunderground v.1.15,2013-01-23 15:59:00,
2013-01-23 11:04:00,18.1,-2.2,30.19,West,266,2.0,10.0,40,0.00,,,0.00,Wunderground v.1.15,2013-01-23 16:04:00,
2013-01-23 11:09:00,18.3,-2.6,30.19,West,266,5.0,10.0,39,0.00,,,0.00,Wunderground v.1.15,2013-01-23 16:09:00,
2013-01-23 11:14:00,18.1,-2.7,30.19,West,281,2.0,7.0,39,0.00,,,0.00,Wunderground v.1.15,2013-01-23 16:14:00,
2013-01-23 11:19:00,18.1,-2.7,30.18,NNW,332,2.0,10.0,39,0.00,,,0.00,Wunderground v.1.15,2013-01-23 16:19:00,
2013-01-23 11:24:00,18.1,-3.3,30.18,NW,318,2.0,8.0,38,0.00,,,0.00,Wunderground v.1.15,2013-01-23 16:24:00,
2013-01-23 11:29:00,18.0,-3.4,30.17,NNW,336,0.0,8.0,38,0.00,,,0.00,Wunderground v.1.15,2013-01-23 16:29:00,
2013-01-23 11:34:00,18.1,-2.7,30.17,NW,311,0.0,8.0,39,0.00,,,0.00,Wunderground v.1.15,2013-01-23 16:34:00,
2013-01-23 11:39:00,18.4,-2.5,30.17,West,264,1.0,8.0,39,0.00,,,0.00,Wunderground v.1.15,2013-01-23 16:39:00,
2013-01-23 11:44:00,18.6,-2.3,30.16,WNW,286,0.0,5.0,39,0.00,,,0.00,Wunderground v.1.15,2013-01-23 16:44:00,
2013-01-23 11:49:00,18.6,-2.8,30.16,NW,323,0.0,7.0,38,0.00,,,0.00,Wunderground v.1.15,2013-01-23 16:49:00,
2013-01-23 11:54:00,18.8,-2.7,30.16,NNW,327,0.0,6.0,38,0.00,,,0.00,Wunderground v.1.15,2013-01-23 16:54:00,
2013-01-23 11:59:00,19.4,-2.1,30.15,WNW,288,9.0,16.0,38,0.00,,,0.00,Wunderground v.1.15,2013-01-23 16:59:00,
2013-01-23 12:04:00,19.4,-2.7,30.15,NW,312,2.0,9.0,37,0.00,,,0.00,Wunderground v.1.15,2013-01-23 17:04:00,
2013-01-23 12:09:00,19.2,-2.9,30.15,NW,318,6.0,9.0,37,0.00,,,0.00,Wunderground v.1.15,2013-01-23 17:09:00,
2013-01-23 12:14:00,18.8,-3.2,30.14,NW,313,0.0,9.0,37,0.00,,,0.00,Wunderground v.1.15,2013-01-23 17:14:00,
2013-01-23 12:19:00,18.8,-2.1,30.14,NW,313,0.0,9.0,39,0.00,,,0.00,Wunderground v.1.15,2013-01-23 17:19:00,
2013-01-23 12:24:00,18.9,-2.0,30.14,NW,324,7.0,7.0,39,0.00,,,0.00,Wunderground v.1.15,2013-01-23 17:24:00,
2013-01-23 12:29:00,18.9,-2.0,30.13,WNW,283,1.0,8.0,39,0.00,,,0.00,Wunderground v.1.15,2013-01-23 17:29:00,
2013-01-23 12:34:00,19.1,-2.4,30.13,WNW,296,1.0,7.0,38,0.00,,,0.00,Wunderground v.1.15,2013-01-23 17:34:00,
2013-01-23 12:39:00,19.1,-1.8,30.13,NW,315,0.0,7.0,39,0.00,,,0.00,Wunderground v.1.15,2013-01-23 17:39:00,
2013-01-23 12:44:00,19.4,-1.0,30.13,WNW,297,3.0,5.0,40,0.00,,,0.00,Wunderground v.1.15,2013-01-23 17:44:00,
2013-01-23 12:49:00,19.2,-1.2,30.13,NW,308,2.0,5.0,40,0.00,,,0.00,Wunderground v.1.15,2013-01-23 17:49:00,
2013-01-23 12:54:00,19.2,-1.2,30.13,WNW,294,4.0,8.0,40,0.00,,,0.00,Wunderground v.1.15,2013-01-23 17:54:00,
2013-01-23 12:59:00,19.1,-1.3,30.12,WSW,246,4.0,8.0,40,0.00,,,0.00,Wunderground v.1.15,2013-01-23 17:59:00,
2013-01-23 13:04:00,18.9,-1.0,30.12,SW,225,0.0,7.0,41,0.00,,,0.00,Wunderground v.1.15,2013-01-23 18:04:00,
2013-01-23 13:09:00,18.8,-1.1,30.12,NNW,331,5.0,7.0,41,0.00,,,0.00,Wunderground v.1.15,2013-01-23 18:09:00,
2013-01-23 13:14:00,18.3,-1.0,30.11,North,360,1.0,9.0,42,0.00,,,0.00,Wunderground v.1.15,2013-01-23 18:14:00,
2013-01-23 13:19:00,18.6,-0.2,30.11,NW,306,2.0,9.0,43,0.00,,,0.00,Wunderground v.1.15,2013-01-23 18:19:00,
2013-01-23 13:24:00,19.2,0.3,30.11,NNW,327,0.0,5.0,43,0.00,,,0.00,Wunderground v.1.15,2013-01-23 18:24:00,
2013-01-23 13:29:00,19.7,0.3,30.11,NW,311,1.0,5.0,42,0.00,,,0.00,Wunderground v.1.15,2013-01-23 18:29:00,
2013-01-23 13:34:00,20.0,-0.5,30.11,WNW,286,1.0,8.0,40,0.00,,,0.00,Wunderground v.1.15,2013-01-23 18:34:00,
2013-01-23 13:39:00,20.0,-1.0,30.11,SSW,209,4.0,8.0,39,0.00,,,0.00,Wunderground v.1.15,2013-01-23 18:39:00,
2013-01-23 13:44:00,20.2,-1.4,30.11,NW,323,5.0,9.0,38,0.00,,,0.00,Wunderground v.1.15,2013-01-23 18:44:00,
2013-01-23 13:49:00,19.9,-2.2,30.11,WNW,296,7.0,12.0,37,0.00,,,0.00,Wunderground v.1.15,2013-01-23 18:49:00,
2013-01-23 13:54:00,19.7,-2.4,30.11,NW,315,0.0,7.0,37,0.00,,,0.00,Wunderground v.1.15,2013-01-23 18:54:00,
2013-01-23 13:59:00,19.4,-2.1,30.11,NW,317,0.0,7.0,38,0.00,,,0.00,Wunderground v.1.15,2013-01-23 18:59:00,
2013-01-23 14:04:00,19.4,-2.1,30.11,WNW,298,0.0,4.0,38,0.00,,,0.00,Wunderground v.1.15,2013-01-23 19:04:00,
2013-01-23 14:09:00,19.2,-1.8,30.11,NNW,340,2.0,5.0,39,0.00,,,0.00,Wunderground v.1.15,2013-01-23 19:09:00,
2013-01-23 14:14:00,19.1,-1.3,30.11,WNW,302,0.0,3.0,40,0.00,,,0.00,Wunderground v.1.15,2013-01-23 19:14:00,
2013-01-23 14:19:00,19.2,-0.7,30.11,NW,317,3.0,6.0,41,0.00,,,0.00,Wunderground v.1.15,2013-01-23 19:19:00,
2013-01-23 14:24:00,19.7,-1.3,30.11,WNW,294,1.0,8.0,39,0.00,,,0.00,Wunderground v.1.15,2013-01-23 19:24:00,
2013-01-23 14:29:00,20.0,-1.0,30.11,West,281,1.0,8.0,39,0.00,,,0.00,Wunderground v.1.15,2013-01-23 19:29:00,
2013-01-23 14:35:00,20.6,-0.5,30.11,NNW,331,0.0,7.0,39,0.00,,,0.00,Wunderground v.1.15,2013-01-23 19:35:00,
2013-01-23 14:40:00,20.6,-1.0,30.11,WNW,290,4.0,10.0,38,0.00,,,0.00,Wunderground v.1.15,2013-01-23 19:40:00,
2013-01-23 14:45:00,20.6,-1.0,30.11,WNW,288,2.0,9.0,38,0.00,,,0.00,Wunderground v.1.15,2013-01-23 19:45:00,
2013-01-23 14:50:00,20.3,-1.9,30.11,WNW,298,5.0,11.0,37,0.00,,,0.00,Wunderground v.1.15,2013-01-23 19:50:00,
2013-01-23 14:55:00,19.5,-2.0,30.11,NNW,331,2.0,7.0,38,0.00,,,0.00,Wunderground v.1.15,2013-01-23 19:55:00,
2013-01-23 15:00:00,19.2,-1.8,30.11,North,360,0.0,2.0,39,0.00,,,0.00,Wunderground v.1.15,2013-01-23 20:00:00,
2013-01-23 15:05:00,19.1,-1.8,30.11,NNE,15,5.0,7.0,39,0.00,,,0.00,Wunderground v.1.15,2013-01-23 20:05:00,
2013-01-23 15:10:00,18.9,-1.5,30.11,WNW,287,1.0,3.0,40,0.00,,,0.00,Wunderground v.1.15,2013-01-23 20:10:00,
2013-01-23 15:15:00,18.9,-1.5,30.11,WNW,296,2.0,7.0,40,0.00,,,0.00,Wunderground v.1.15,2013-01-23 20:15:00,
2013-01-23 15:20:00,19.2,-0.7,30.11,NW,316,1.0,1.0,41,0.00,,,0.00,Wunderground v.1.15,2013-01-23 20:20:00,
2013-01-23 15:25:00,19.5,0.1,30.11,NW,307,1.0,5.0,42,0.00,,,0.00,Wunderground v.1.15,2013-01-23 20:25:00,
2013-01-23 15:30:00,20.0,0.0,30.11,NNW,330,2.0,2.0,41,0.00,,,0.00,Wunderground v.1.15,2013-01-23 20:30:00,
2013-01-23 15:35:00,20.3,-0.2,30.11,NW,316,1.0,5.0,40,0.00,,,0.00,Wunderground v.1.15,2013-01-23 20:35:00,
2013-01-23 15:40:00,20.5,-0.6,30.11,NW,317,0.0,2.0,39,0.00,,,0.00,Wunderground v.1.15,2013-01-23 20:40:00,
2013-01-23 15:45:00,20.5,-1.7,30.11,WNW,299,0.0,7.0,37,0.00,,,0.00,Wunderground v.1.15,2013-01-23 20:45:00,
2013-01-23 15:50:00,20.2,-2.0,30.11,WNW,298,2.0,5.0,37,0.00,,,0.00,Wunderground v.1.15,2013-01-23 20:50:00,
2013-01-23 15:55:00,19.4,-2.7,30.11,NNW,340,3.0,11.0,37,0.00,,,0.00,Wunderground v.1.15,2013-01-23 20:55:00,
2013-01-23 16:00:00,18.9,-1.5,30.11,North,360,0.0,5.0,40,0.00,,,0.00,Wunderground v.1.15,2013-01-23 21:00:00,
2013-01-23 16:05:00,18.8,-0.5,30.11,WNW,284,0.0,7.0,42,0.00,,,0.00,Wunderground v.1.15,2013-01-23 21:05:00,
2013-01-23 16:10:00,18.6,-0.7,30.11,NW,311,2.0,4.0,42,0.00,,,0.00,Wunderground v.1.15,2013-01-23 21:10:00,
2013-01-23 16:15:00,18.6,-0.2,30.11,WNW,303,1.0,4.0,43,0.00,,,0.00,Wunderground v.1.15,2013-01-23 21:15:00,
2013-01-23 16:20:00,18.6,-0.2,30.11,West,281,5.0,5.0,43,0.00,,,0.00,Wunderground v.1.15,2013-01-23 21:20:00,
2013-01-23 16:25:00,18.6,-0.2,30.11,NNW,328,0.0,6.0,43,0.00,,,0.00,Wunderground v.1.15,2013-01-23 21:25:00,
2013-01-23 16:30:00,18.6,-0.2,30.12,NNW,333,8.0,8.0,43,0.00,,,0.00,Wunderground v.1.15,2013-01-23 21:30:00,
2013-01-23 16:35:00,18.4,-0.4,30.12,NW,317,0.0,8.0,43,0.00,,,0.00,Wunderground v.1.15,2013-01-23 21:35:00,
2013-01-23 16:40:00,18.1,-0.7,30.12,North,351,0.0,2.0,43,0.00,,,0.00,Wunderground v.1.15,2013-01-23 21:40:00,
2013-01-23 16:45:00,17.8,-0.5,30.11,NW,313,0.0,5.0,44,0.00,,,0.00,Wunderground v.1.15,2013-01-23 21:45:00,
2013-01-23 16:50:00,17.8,-0.5,30.11,NW,322,0.0,3.0,44,0.00,,,0.00,Wunderground v.1.15,2013-01-23 21:50:00,
2013-01-23 16:55:00,17.7,-0.1,30.11,NW,317,1.0,5.0,45,0.00,,,0.00,Wunderground v.1.15,2013-01-23 21:55:00,
2013-01-23 17:00:00,17.5,-0.3,30.12,West,274,1.0,2.0,45,0.00,,,0.00,Wunderground v.1.15,2013-01-23 22:00:00,
2013-01-23 17:05:00,17.3,0.0,30.12,West,277,0.0,2.0,46,0.00,,,0.00,Wunderground v.1.15,2013-01-23 22:05:00,
2013-01-23 17:10:00,17.3,0.0,30.12,West,277,0.0,0.0,46,0.00,,,0.00,Wunderground v.1.15,2013-01-23 22:10:00,
2013-01-23 17:16:00,17.2,-0.1,30.12,West,277,0.0,2.0,46,0.00,,,0.00,Wunderground v.1.15,2013-01-23 22:16:00,
2013-01-23 17:21:00,17.0,0.2,30.12,NW,304,0.0,0.0,47,0.00,,,0.00,Wunderground v.1.15,2013-01-23 22:21:00,
2013-01-23 17:26:00,17.0,0.2,30.12,NW,304,0.0,0.0,47,0.00,,,0.00,Wunderground v.1.15,2013-01-23 22:26:00,
2013-01-23 17:31:00,16.9,0.1,30.12,NW,304,0.0,0.0,47,0.00,,,0.00,Wunderground v.1.15,2013-01-23 22:31:00,
2013-01-23 17:36:00,16.7,-0.1,30.12,West,269,0.0,5.0,47,0.00,,,0.00,Wunderground v.1.15,2013-01-23 22:36:00,
2013-01-23 17:41:00,16.7,-0.1,30.12,West,269,0.0,1.0,47,0.00,,,0.00,Wunderground v.1.15,2013-01-23 22:41:00,
2013-01-23 17:46:00,16.5,-0.3,30.13,WNW,287,2.0,4.0,47,0.00,,,0.00,Wunderground v.1.15,2013-01-23 22:46:00,
2013-01-23 17:51:00,16.5,-0.7,30.13,WNW,291,0.0,0.0,46,0.00,,,0.00,Wunderground v.1.15,2013-01-23 22:51:00,
2013-01-23 17:56:00,16.5,-0.7,30.13,West,270,0.0,4.0,46,0.00,,,0.00,Wunderground v.1.15,2013-01-23 22:56:00,
2013-01-23 18:01:00,16.5,-0.7,30.13,WNW,292,0.0,2.0,46,0.00,,,0.00,Wunderground v.1.15,2013-01-23 23:01:00,
2013-01-23 18:06:00,16.5,-0.7,30.13,WNW,292,0.0,2.0,46,0.00,,,0.00,Wunderground v.1.15,2013-01-23 23:06:00,
2013-01-23 18:11:00,16.4,-0.8,30.13,WNW,292,0.0,2.0,46,0.00,,,0.00,Wunderground v.1.15,2013-01-23 23:11:00,
2013-01-23 18:16:00,16.4,-0.3,30.13,WNW,292,0.0,2.0,47,0.00,,,0.00,Wunderground v.1.15,2013-01-23 23:16:00,
2013-01-23 18:21:00,16.2,-0.5,30.13,WNW,293,0.0,0.0,47,0.00,,,0.00,Wunderground v.1.15,2013-01-23 23:21:00,
2013-01-23 18:26:00,16.1,-0.6,30.13,WNW,292,0.0,1.0,47,0.00,,,0.00,Wunderground v.1.15,2013-01-23 23:26:00,
2013-01-23 18:31:00,16.1,-0.2,30.13,WNW,292,0.0,0.0,48,0.00,,,0.00,Wunderground v.1.15,2013-01-23 23:31:00,
2013-01-23 18:36:00,15.9,-0.4,30.13,WNW,292,0.0,1.0,48,0.00,,,0.00,Wunderground v.1.15,2013-01-23 23:36:00,
2013-01-23 18:41:00,15.7,-0.1,30.13,WNW,292,0.0,1.0,49,0.00,,,0.00,Wunderground v.1.15,2013-01-23 23:41:00,
2013-01-23 18:46:00,15.7,-0.1,30.13,WNW,292,0.0,1.0,49,0.00,,,0.00,Wunderground v.1.15,2013-01-23 23:46:00,
2013-01-23 18:51:00,15.6,-0.2,30.13,WNW,292,0.0,0.0,49,0.00,,,0.00,Wunderground v.1.15,2013-01-23 23:51:00,
2013-01-23 18:56:00,15.4,0.0,30.13,WNW,292,0.0,0.0,50,0.00,,,0.00,Wunderground v.1.15,2013-01-23 23:56:00,
2013-01-23 19:02:00,15.2,-0.1,30.12,WNW,292,0.0,0.0,50,0.00,,,0.00,Wunderground v.1.15,2013-01-24 00:02:00,
2013-01-23 19:07:00,15.1,-0.2,30.12,WNW,293,0.0,1.0,50,0.00,,,0.00,Wunderground v.1.15,2013-01-24 00:07:00,
2013-01-23 19:12:00,14.9,0.0,30.12,WNW,292,0.0,0.0,51,0.00,,,0.00,Wunderground v.1.15,2013-01-24 00:12:00,
2013-01-23 19:17:00,14.8,-0.1,30.12,WNW,292,0.0,0.0,51,0.00,,,0.00,Wunderground v.1.15,2013-01-24 00:17:00,
2013-01-23 19:22:00,14.6,-0.3,30.12,WNW,292,0.0,0.0,51,0.00,,,0.00,Wunderground v.1.15,2013-01-24 00:22:00,
2013-01-23 19:27:00,14.3,-0.6,30.12,WNW,292,0.0,0.0,51,0.00,,,0.00,Wunderground v.1.15,2013-01-24 00:27:00,
2013-01-23 19:32:00,14.1,-0.3,30.12,WNW,292,0.0,0.0,52,0.00,,,0.00,Wunderground v.1.15,2013-01-24 00:32:00,
2013-01-23 19:36:00,14.0,-0.4,30.12,WNW,292,0.0,0.0,52,0.00,,,0.00,Wunderground v.1.15,2013-01-24 00:36:00,
2013-01-23 19:41:00,13.8,-0.2,30.12,WNW,292,0.0,0.0,53,0.00,,,0.00,Wunderground v.1.15,2013-01-24 00:41:00,
2013-01-23 19:46:00,13.6,0.0,30.12,WNW,293,0.0,0.0,54,0.00,,,0.00,Wunderground v.1.15,2013-01-24 00:46:00,
2013-01-23 19:51:00,13.6,0.0,30.12,WNW,293,0.0,0.0,54,0.00,,,0.00,Wunderground v.1.15,2013-01-24 00:51:00,
2013-01-23 19:57:00,13.5,0.3,30.12,WNW,292,0.0,0.0,55,0.00,,,0.00,Wunderground v.1.15,2013-01-24 00:57:00,
2013-01-23 20:02:00,13.5,0.3,30.12,WNW,292,0.0,0.0,55,0.00,,,0.00,Wunderground v.1.15,2013-01-24 01:02:00,
2013-01-23 20:07:00,13.3,0.1,30.12,WNW,292,0.0,0.0,55,0.00,,,0.00,Wunderground v.1.15,2013-01-24 01:07:00,
2013-01-23 20:12:00,13.1,-0.1,30.12,WNW,292,0.0,0.0,55,0.00,,,0.00,Wunderground v.1.15,2013-01-24 01:12:00,
2013-01-23 20:17:00,12.9,0.1,30.11,WNW,292,0.0,0.0,56,0.00,,,0.00,Wunderground v.1.15,2013-01-24 01:17:00,
2013-01-23 20:22:00,12.9,0.1,30.11,WNW,293,0.0,0.0,56,0.00,,,0.00,Wunderground v.1.15,2013-01-24 01:22:00,
2013-01-23 20:27:00,12.8,0.0,30.11,WNW,292,0.0,0.0,56,0.00,,,0.00,Wunderground v.1.15,2013-01-24 01:27:00,
2013-01-23 20:32:00,12.8,0.0,30.11,WNW,292,0.0,0.0,56,0.00,,,0.00,Wunderground v.1.15,2013-01-24 01:32:00,
2013-01-23 20:37:00,12.6,0.2,30.11,WNW,292,0.0,0.0,57,0.00,,,0.00,Wunderground v.1.15,2013-01-24 01:37:00,
2013-01-23 20:42:00,12.4,0.0,30.11,WNW,292,0.0,0.0,57,0.00,,,0.00,Wunderground v.1.15,2013-01-24 01:42:00,
2013-01-23 20:47:00,12.4,0.4,30.11,WNW,292,0.0,0.0,58,0.00,,,0.00,Wunderground v.1.15,2013-01-24 01:47:00,
2013-01-23 20:52:00,12.3,0.3,30.11,WNW,292,0.0,0.0,58,0.00,,,0.00,Wunderground v.1.15,2013-01-24 01:52:00,
2013-01-23 20:57:00,12.1,0.1,30.11,WNW,292,0.0,0.0,58,0.00,,,0.00,Wunderground v.1.15,2013-01-24 01:57:00,
2013-01-23 21:02:00,11.9,0.3,30.11,WNW,292,0.0,0.0,59,0.00,,,0.00,Wunderground v.1.15,2013-01-24 02:02:00,
2013-01-23 21:07:00,11.7,0.1,30.11,WNW,292,0.0,0.0,59,0.00,,,0.00,Wunderground v.1.15,2013-01-24 02:07:00,
2013-01-23 21:12:00,11.7,0.1,30.11,WNW,292,0.0,0.0,59,0.00,,,0.00,Wunderground v.1.15,2013-01-24 02:12:00,
2013-01-23 21:17:00,11.6,0.0,30.11,WNW,293,0.0,0.0,59,0.00,,,0.00,Wunderground v.1.15,2013-01-24 02:17:00,
2013-01-23 21:22:00,11.6,0.4,30.11,WNW,292,0.0,0.0,60,0.00,,,0.00,Wunderground v.1.15,2013-01-24 02:22:00,
2013-01-23 21:27:00,11.4,0.5,30.11,WNW,293,0.0,0.0,61,0.00,,,0.00,Wunderground v.1.15,2013-01-24 02:27:00,
2013-01-23 21:32:00,11.2,0.4,30.12,WNW,292,0.0,0.0,61,0.00,,,0.00,Wunderground v.1.15,2013-01-24 02:32:00,
2013-01-23 21:37:00,11.1,0.3,30.12,WNW,292,0.0,0.0,61,0.00,,,0.00,Wunderground v.1.15,2013-01-24 02:37:00,
2013-01-23 21:42:00,11.1,0.6,30.12,WNW,292,0.0,0.0,62,0.00,,,0.00,Wunderground v.1.15,2013-01-24 02:42:00,
2013-01-23 21:47:00,11.1,0.6,30.12,WNW,293,0.0,0.0,62,0.00,,,0.00,Wunderground v.1.15,2013-01-24 02:47:00,
2013-01-23 21:52:00,11.1,0.9,30.12,WNW,292,0.0,0.0,63,0.00,,,0.00,Wunderground v.1.15,2013-01-24 02:52:00,
2013-01-23 21:57:00,10.9,0.8,30.12,WNW,292,0.0,0.0,63,0.00,,,0.00,Wunderground v.1.15,2013-01-24 02:57:00,
2013-01-23 22:02:00,10.9,0.8,30.12,WNW,292,0.0,0.0,63,0.00,,,0.00,Wunderground v.1.15,2013-01-24 03:02:00,
2013-01-23 22:07:00,10.7,0.6,30.12,WNW,292,0.0,0.0,63,0.00,,,0.00,Wunderground v.1.15,2013-01-24 03:07:00,
2013-01-23 22:12:00,10.7,0.9,30.12,WNW,292,0.0,0.0,64,0.00,,,0.00,Wunderground v.1.15,2013-01-24 03:12:00,
2013-01-23 22:17:00,10.5,0.7,30.12,WNW,292,0.0,0.0,64,0.00,,,0.00,Wunderground v.1.15,2013-01-24 03:17:00,
2013-01-23 22:22:00,10.4,0.6,30.12,WNW,292,0.0,0.0,64,0.00,,,0.00,Wunderground v.1.15,2013-01-24 03:22:00,
2013-01-23 22:27:00,10.4,0.6,30.12,WNW,292,0.0,0.0,64,0.00,,,0.00,Wunderground v.1.15,2013-01-24 03:27:00,
2013-01-23 22:32:00,10.4,1.0,30.12,WNW,292,0.0,0.0,65,0.00,,,0.00,Wunderground v.1.15,2013-01-24 03:32:00,
2013-01-23 22:37:00,10.4,1.0,30.12,WNW,292,0.0,0.0,65,0.00,,,0.00,Wunderground v.1.15,2013-01-24 03:37:00,
2013-01-23 22:42:00,10.5,1.0,30.12,WNW,292,0.0,0.0,65,0.00,,,0.00,Wunderground v.1.15,2013-01-24 03:42:00,
2013-01-23 22:47:00,10.5,1.4,30.11,WNW,292,0.0,0.0,66,0.00,,,0.00,Wunderground v.1.15,2013-01-24 03:47:00,
2013-01-23 22:52:00,10.7,1.6,30.11,WNW,293,0.0,0.0,66,0.00,,,0.00,Wunderground v.1.15,2013-01-24 03:52:00,
2013-01-23 22:57:00,11.1,1.9,30.11,WNW,292,0.0,0.0,66,0.00,,,0.00,Wunderground v.1.15,2013-01-24 03:57:00,
2013-01-23 23:02:00,11.1,2.3,30.11,WNW,292,0.0,0.0,67,0.00,,,0.00,Wunderground v.1.15,2013-01-24 04:02:00,
2013-01-23 23:07:00,11.2,2.4,30.11,WNW,292,0.0,0.0,67,0.00,,,0.00,Wunderground v.1.15,2013-01-24 04:07:00,
2013-01-23 23:12:00,11.2,2.4,30.11,WNW,293,0.0,0.0,67,0.00,,,0.00,Wunderground v.1.15,2013-01-24 04:12:00,
2013-01-23 23:17:00,11.2,2.4,30.11,WNW,292,0.0,0.0,67,0.00,,,0.00,Wunderground v.1.15,2013-01-24 04:17:00,
2013-01-23 23:22:00,11.2,2.4,30.11,WNW,292,0.0,0.0,67,0.00,,,0.00,Wunderground v.1.15,2013-01-24 04:22:00,
2013-01-23 23:28:00,11.2,2.7,30.11,WNW,292,0.0,0.0,68,0.00,,,0.00,Wunderground v.1.15,2013-01-24 04:28:00,
2013-01-23 23:33:00,11.2,2.7,30.11,WNW,292,0.0,0.0,68,0.00,,,0.00,Wunderground v.1.15,2013-01-24 04:33:00,
2013-01-23 23:38:00,11.2,2.7,30.11,WNW,292,0.0,0.0,68,0.00,,,0.00,Wunderground v.1.15,2013-01-24 04:38:00,
2013-01-23 23:43:00,11.2,2.7,30.11,WNW,292,0.0,0.0,68,0.00,,,0.00,Wunderground v.1.15,2013-01-24 04:43:00,
2013-01-23 23:48:00,11.2,3.0,30.10,WNW,292,0.0,0.0,69,0.00,,,0.00,Wunderground v.1.15,2013-01-24 04:48:00,
2013-01-23 23:53:00,11.4,3.2,30.10,WNW,292,0.0,0.0,69,0.00,,,0.00,Wunderground v.1.15,2013-01-24 04:53:00,
2013-01-23 23:58:00,11.4,3.2,30.10,WNW,292,0.0,0.0,69,0.00,,,0.00,Wunderground v.1.15,2013-01-24 04:58:00,